QPF
0.00 0.00 0.00 0.00 0.00 0.00 0.00 0.00 0.00 0.00 0.00 0.00 0.00 0.00 0.00 0.00 0.00 0.00 0.00 0.00 0.01 0.01 0.01 0.01 0.03 0.03 0.04 0.08 0.13 0.16 0.19 0.19 0.17 0.17 0.18 0.21 0.24 0.26 0.27 0.26 0.22 0.23 0.27 0.29
0.00 0.00 0.00 0.00 0.00 0.00 0.00 0.00 0.00 0.00 0.00 0.00 0.00 0.00 0.00 0.00 0.00 0.00 0.00 0.01 0.01 0.02 0.03 0.03 0.03 0.04 0.05 0.08 0.14 0.20 0.22 0.19 0.17 0.18 0.18 0.21 0.27 0.30 0.28 0.26 0.21 0.19 0.20 0.22
0.00 0.00 0.00 0.00 0.00 0.00 0.00 0.00 0.00 0.00 0.00 0.00 0.00 0.00 0.00 0.00 0.00 0.00 0.01 0.01 0.01 0.02 0.03 0.04 0.04 0.05 0.05 0.06 0.11 0.15 0.14 0.10 0.09 0.09 0.09 0.09 0.09 0.09 0.08 0.10 0.13 0.16 0.17 0.16
0.00 0.00 0.00 0.00 0.00 0.00 0.00 0.00 0.00 0.00 0.00 0.00 0.00 0.00 0.01 0.00 0.00 0.00 0.01 0.01 0.02 0.02 0.02 0.03 0.04 0.03 0.03 0.04 0.06 0.06 0.06 0.06 0.06 0.04 0.03 0.04 0.04 0.04 0.05 0.06 0.07 0.09 0.09 0.11
0.00 0.00 0.00 0.00 0.00 0.00 0.00 0.00 0.00 0.00 0.00 0.00 0.00 0.00 0.00 0.00 0.00 0.01 0.01 0.01 0.01 0.02 0.02 0.04 0.04 0.03 0.02 0.03 0.03 0.03 0.03 0.03 0.03 0.03 0.03 0.04 0.03 0.04 0.03 0.04 0.05 0.06 0.07 0.08
0.00 0.00 0.00 0.00 0.00 0.00 0.00 0.00 0.00 0.00 0.00 0.00 0.00 0.00 0.01 0.01 0.01 0.01 0.01 0.01 0.01 0.02 0.03 0.03 0.02 0.02 0.02 0.01 0.01 0.01 0.01 0.02 0.02 0.02 0.02 0.02 0.02 0.02 0.02 0.03 0.04 0.04 0.04 0.05
0.00 0.00 0.00 0.00 0.00 0.00 0.00 0.00 0.00 0.00 0.00 0.00 0.00 0.01 0.02 0.01 0.00 0.01 0.01 0.01 0.01 0.02 0.03 0.02 0.02 0.01 0.01 0.00 0.00 0.00 0.01 0.00 0.01 0.01 0.01 0.01 0.01 0.01 0.01 0.01 0.02 0.02 0.03 0.03
0.00 0.00 0.00 0.00 0.00 0.00 0.00 0.00 0.00 0.01 0.00 0.00 0.00 0.03 0.02 0.00 0.00 0.01 0.01 0.01 0.01 0.01 0.01 0.01 0.00 0.00 0.00 0.00 0.00 0.00 0.00 0.00 0.00 0.00 0.00 0.00 0.01 0.01 0.01 0.00 0.00 0.01 0.01 0.02
0.00 0.00 0.00 0.00 0.00 0.00 0.00 0.00 0.00 0.00 0.00 0.01 0.01 0.02 0.02 0.01 0.01 0.01 0.01 0.01 0.01 0.00 0.00 0.00 0.00 0.00 0.00 0.00 0.00 0.00 0.00 0.00 0.00 0.00 0.01 0.01 0.01 0.01 0.01 0.01 0.00 0.00 0.00 0.00
0.00 0.00 0.00 0.00 0.00 0.00 0.00 0.00 0.00 0.00 0.01 0.02 0.02 0.04 0.05 0.02 0.01 0.01 0.01 0.00 0.00 0.00 0.00 0.00 0.00 0.00 0.00 0.00 0.00 0.00 0.00 0.00 0.00 0.01 0.01 0.01 0.01 0.01 0.01 0.01 0.00 0.00 0.00 0.00
0.00 0.00 0.00 0.00 0.00 0.00 0.00 0.00 0.00 0.00 0.01 0.02 0.01 0.02 0.01 0.01 0.00 0.00 0.00 0.00 0.00 0.00 0.00 0.00 0.00 0.00 0.00 0.00 0.00 0.00 0.01 0.01 0.00 0.00 0.01 0.01 0.01 0.00 0.00 0.01 0.01 0.00 0.00 0.00
0.00 0.00 0.00 0.00 0.00 0.00 0.00 0.00 0.00 0.01 0.01 0.01 0.01 0.01 0.00 0.00 0.00 0.00 0.00 0.00 0.00 0.00 0.00 0.00 0.00 0.00 0.00 0.00 0.00 0.00 0.00 0.00 0.00 0.00 0.00 0.00 0.00 0.01 0.01 0.01 0.00 0.00 0.00 0.00
0.00 0.00 0.00 0.00 0.00 0.00 0.00 0.00 0.00 0.00 0.00 0.00 0.00 0.00 0.00 0.00 0.00 0.00 0.00 0.00 0.00 0.00 0.00 0.00 0.00 0.00 0.00 0.00 0.00 0.00 0.00 0.00 0.00 0.00 0.00 0.00 0.00 0.00 0.01 0.00 0.01 0.01 0.01 0.01
0.00 0.00 0.00 0.00 0.00 0.00 0.00 0.00 0.00 0.00 0.00 0.00 0.00 0.00 0.00 0.00 0.00 0.00 0.00 0.00 0.00 0.00 0.00 0.00 0.00 0.00 0.00 0.00 0.00 0.00 0.00 0.00 0.00 0.00 0.00 0.00 0.00 0.01 0.00 0.00 0.01 0.01 0.01 0.01
0.00 0.00 0.00 0.00 0.00 0.00 0.00 0.00 0.00 0.00 0.00 0.00 0.00 0.00 0.00 0.00 0.00 0.00 0.00 0.00 0.00 0.00 0.00 0.00 0.00 0.00 0.00 0.00 0.00 0.00 0.00 0.00 0.00 0.00 0.00 0.00 0.01 0.01 0.01 0.01 0.01 0.01 0.01 0.01
0.00 0.00 0.00 0.00 0.00 0.00 0.00 0.00 0.00 0.00 0.00 0.00 0.00 0.00 0.00 0.00 0.00 0.00 0.00 0.00 0.00 0.00 0.00 0.00 0.00 0.00 0.00 0.00 0.00 0.00 0.00 0.00 0.00 0.00 0.00 0.01 0.01 0.01 0.02 0.02 0.02 0.02 0.02 0.02
0.00 0.00 0.00 0.00 0.00 0.00 0.00 0.00 0.00 0.00 0.00 0.00 0.00 0.00 0.00 0.00 0.00 0.00 0.00 0.00 0.00 0.00 0.00 0.00 0.00 0.00 0.00 0.00 0.00 0.00 0.00 0.00 0.00 0.00 0.01 0.01 0.01 0.02 0.02 0.02 0.02 0.03 0.04 0.05
0.00 0.00 0.00 0.00 0.00 0.00 0.00 0.00 0.00 0.00 0.00 0.00 0.00 0.00 0.00 0.00 0.00 0.00 0.00 0.00 0.00 0.00 0.00 0.00 0.00 0.00 0.00 0.00 0.00 0.00 0.00 0.00 0.01 0.01 0.01 0.02 0.02 0.03 0.03 0.03 0.04 0.05 0.06 0.07
0.00 0.00 0.00 0.00 0.00 0.00 0.00 0.00 0.00 0.00 0.00 0.00 0.00 0.00 0.00 0.00 0.00 0.00 0.00 0.00 0.00 0.00 0.00 0.00 0.00 0.00 0.00 0.00 0.00 0.00 0.01 0.01 0.01 0.01 0.02 0.03 0.04 0.05 0.05 0.06 0.07 0.07 0.08 0.08
0.00 0.00 0.00 0.00 0.00 0.00 0.00 0.00 0.00 0.00 0.00 0.00 0.00 0.00 0.00 0.00 0.00 0.00 0.00 0.00 0.00 0.00 0.00 0.00 0.00 0.00 0.00 0.00 0.00 0.01 0.01 0.01 0.02 0.03 0.04 0.05 0.06 0.07 0.06 0.07 0.08 0.08 0.09 0.09
0.00 0.00 0.00 0.00 0.00 0.00 0.00 0.00 0.00 0.00 0.00 0.00 0.00 0.00 0.00 0.00 0.00 0.00 0.00 0.00 0.00 0.00 0.00 0.00 0.00 0.00 0.00 0.00 0.01 0.02 0.02 0.02 0.03 0.05 0.05 0.06 0.06 0.07 0.07 0.07 0.08 0.08 0.08 0.08
0.00 0.00 0.00 0.00 0.00 0.00 0.00 0.00 0.00 0.00 0.00 0.00 0.00 0.00 0.00 0.00 0.00 0.00 0.00 0.00 0.00 0.00 0.00 0.00 0.00 0.00 0.00 0.01 0.02 0.03 0.03 0.04 0.05 0.06 0.06 0.07 0.06 0.06 0.06 0.08 0.08 0.08 0.09 0.08
0.00 0.00 0.00 0.00 0.00 0.00 0.00 0.00 0.00 0.00 0.00 0.00 0.00 0.00 0.00 0.00 0.00 0.00 0.00 0.00 0.00 0.00 0.00 0.00 0.00 0.00 0.00 0.01 0.02 0.03 0.03 0.04 0.05 0.07 0.07 0.06 0.05 0.06 0.07 0.08 0.08 0.08 0.08 0.08
0.00 0.00 0.00 0.00 0.00 0.00 0.00 0.00 0.00 0.00 0.00 0.00 0.00 0.00 0.00 0.00 0.00 0.00 0.00 0.00 0.00 0.00 0.00 0.00 0.00 0.00 0.01 0.01 0.02 0.03 0.04 0.05 0.06 0.06 0.05 0.05 0.06 0.06 0.06 0.08 0.08 0.07 0.07 0.08
0.00 0.00 0.00 0.00 0.00 0.00 0.00 0.00 0.00 0.00 0.00 0.00 0.00 0.00 0.00 0.00 0.00 0.00 0.00 0.00 0.00 0.00 0.00 0.00 0.00 0.01 0.01 0.01 0.02 0.03 0.04 0.06 0.06 0.06 0.05 0.05 0.06 0.06 0.05 0.06 0.06 0.06 0.07 0.06
0.00 0.00 0.00 0.00 0.00 0.00 0.00 0.00 0.00 0.00 0.00 0.00 0.00 0.00 0.00 0.00 0.00 0.00 0.00 0.00 0.00 0.00 0.00 0.00 0.00 0.01 0.01 0.02 0.02 0.03 0.05 0.06 0.06 0.06 0.05 0.06 0.06 0.05 0.06 0.05 0.05 0.03 0.03 0.02
MSLP
1009.35 1009.67 1009.80 1009.77 1009.63 1009.46 1009.34 1009.32 1009.45 1009.69 1010.02 1010.39 1010.73 1011.00 1011.17 1011.25 1011.25 1011.23 1011.21 1011.23 1011.29 1011.39 1011.50 1011.61 1011.67 1011.69 1011.65 1011.56 1011.44 1011.32 1011.22 1011.14 1011.08 1011.03 1010.99 1010.93 1010.86 1010.75 1010.63 1010.51 1010.39 1010.29 1010.22 1010.20
1009.50 1009.74 1009.80 1009.71 1009.54 1009.36 1009.26 1009.28 1009.46 1009.77 1010.16 1010.57 1010.95 1011.24 1011.43 1011.51 1011.52 1011.50 1011.48 1011.50 1011.56 1011.65 1011.76 1011.85 1011.90 1011.89 1011.81 1011.69 1011.54 1011.40 1011.27 1011.17 1011.10 1011.05 1011.00 1010.94 1010.84 1010.73 1010.59 1010.44 1010.31 1010.20 1010.13 1010.11
1009.50 1009.66 1009.65 1009.52 1009.33 1009.17 1009.11 1009.20 1009.44 1009.81 1010.25 1010.70 1011.10 1011.40 1011.58 1011.64 1011.62 1011.58 1011.53 1011.53 1011.57 1011.66 1011.76 1011.84 1011.88 1011.87 1011.79 1011.67 1011.52 1011.38 1011.25 1011.16 1011.10 1011.05 1011.00 1010.94 1010.84 1010.71 1010.56 1010.41 1010.27 1010.16 1010.11 1010.10
1009.39 1009.46 1009.40 1009.24 1009.07 1008.95 1008.95 1009.12 1009.44 1009.88 1010.38 1010.86 1011.27 1011.56 1011.70 1011.72 1011.66 1011.56 1011.47 1011.42 1011.43 1011.49 1011.58 1011.66 1011.70 1011.69 1011.63 1011.53 1011.40 1011.28 1011.18 1011.11 1011.07 1011.04 1011.01 1010.95 1010.85 1010.73 1010.58 1010.42 1010.29 1010.20 1010.16 1010.18
1009.26 1009.26 1009.14 1008.98 1008.83 1008.78 1008.86 1009.12 1009.53 1010.05 1010.60 1011.11 1011.52 1011.78 1011.89 1011.85 1011.72 1011.56 1011.40 1011.30 1011.26 1011.28 1011.34 1011.40 1011.44 1011.44 1011.40 1011.32 1011.22 1011.13 1011.06 1011.02 1011.01 1011.01 1010.99 1010.95 1010.87 1010.76 1010.62 1010.48 1010.37 1010.30 1010.28 1010.32
1009.23 1009.14 1008.99 1008.83 1008.73 1008.74 1008.92 1009.27 1009.77 1010.35 1010.95 1011.48 1011.88 1012.11 1012.17 1012.07 1011.88 1011.64 1011.42 1011.24 1011.14 1011.11 1011.13 1011.16 1011.18 1011.18 1011.14 1011.07 1010.99 1010.93 1010.89 1010.88 1010.89 1010.91 1010.92 1010.91 1010.85 1010.76 1010.65 1010.54 1010.45 1010.41 1010.42 1010.49
1009.36 1009.21 1009.03 1008.89 1008.83 1008.91 1009.17 1009.60 1010.17 1010.80 1011.43 1011.96 1012.34 1012.54 1012.55 1012.39 1012.13 1011.83 1011.54 1011.30 1011.13 1011.04 1011.00 1010.99 1010.98 1010.95 1010.89 1010.81 1010.73 1010.67 1010.64 1010.64 1010.67 1010.72 1010.75 1010.76 1010.74 1010.68 1010.60 1010.52 1010.47 1010.45 1010.50 1010.59
1009.66 1009.47 1009.29 1009.17 1009.15 1009.30 1009.61 1010.10 1010.70 1011.36 1011.98 1012.50 1012.85 1013.01 1012.97 1012.76 1012.45 1012.09 1011.74 1011.44 1011.22 1011.07 1010.97 1010.90 1010.84 1010.76 1010.66 1010.55 1010.44 1010.36 1010.31 1010.31 1010.34 1010.39 1010.44 1010.48 1010.49 1010.46 1010.42 1010.37 1010.35 1010.37 1010.44 1010.56
1010.10 1009.91 1009.74 1009.65 1009.67 1009.86 1010.21 1010.71 1011.32 1011.96 1012.55 1013.02 1013.33 1013.43 1013.35 1013.10 1012.75 1012.36 1011.97 1011.63 1011.36 1011.16 1011.00 1010.87 1010.74 1010.60 1010.44 1010.27 1010.11 1009.99 1009.90 1009.87 1009.88 1009.93 1009.98 1010.03 1010.06 1010.06 1010.05 1010.03 1010.04 1010.08 1010.18 1010.33
1010.60 1010.44 1010.31 1010.26 1010.32 1010.53 1010.89 1011.38 1011.95 1012.53 1013.06 1013.46 1013.70 1013.74 1013.62 1013.34 1012.96 1012.55 1012.15 1011.79 1011.49 1011.25 1011.05 1010.86 1010.67 1010.46 1010.23 1009.99 1009.77 1009.58 1009.44 1009.36 1009.34 1009.35 1009.39 1009.43 1009.46 1009.48 1009.48 1009.48 1009.51 1009.57 1009.69 1009.86
1011.07 1010.97 1010.91 1010.91 1011.02 1011.24 1011.59 1012.03 1012.53 1013.02 1013.45 1013.76 1013.91 1013.89 1013.71 1013.41 1013.03 1012.62 1012.22 1011.87 1011.56 1011.30 1011.07 1010.84 1010.59 1010.32 1010.02 1009.72 1009.43 1009.17 1008.97 1008.83 1008.75 1008.72 1008.72 1008.73 1008.74 1008.74 1008.74 1008.74 1008.77 1008.84 1008.98 1009.17
1011.43 1011.43 1011.45 1011.53 1011.68 1011.91 1012.23 1012.62 1013.03 1013.41 1013.72 1013.91 1013.96 1013.87 1013.65 1013.32 1012.94 1012.55 1012.17 1011.84 1011.54 1011.28 1011.04 1010.78 1010.50 1010.18 1009.84 1009.48 1009.13 1008.81 1008.54 1008.34 1008.20 1008.11 1008.05 1008.01 1007.98 1007.94 1007.90 1007.88 1007.90 1007.96 1008.09 1008.29
1011.66 1011.78 1011.90 1012.06 1012.26 1012.52 1012.81 1013.13 1013.44 1013.70 1013.88 1013.95 1013.89 1013.72 1013.45 1013.11 1012.73 1012.36 1012.02 1011.72 1011.45 1011.21 1010.96 1010.70 1010.40 1010.06 1009.68 1009.29 1008.90 1008.53 1008.21 1007.95 1007.74 1007.58 1007.46 1007.34 1007.24 1007.14 1007.05 1006.98 1006.96 1006.99 1007.11 1007.30
1011.80 1012.02 1012.26 1012.50 1012.76 1013.04 1013.31 1013.56 1013.77 1013.91 1013.96 1013.91 1013.76 1013.51 1013.19 1012.83 1012.47 1012.13 1011.82 1011.55 1011.32 1011.10 1010.87 1010.61 1010.31 1009.96 1009.57 1009.16 1008.75 1008.35 1008.00 1007.69 1007.42 1007.19 1006.98 1006.79 1006.60 1006.42 1006.25 1006.11 1006.03 1006.02 1006.10 1006.28
1011.88 1012.21 1012.54 1012.87 1013.18 1013.47 1013.72 1013.92 1014.04 1014.07 1014.01 1013.85 1013.61 1013.29 1012.94 1012.57 1012.22 1011.90 1011.63 1011.40 1011.20 1011.00 1010.79 1010.54 1010.24 1009.89 1009.50 1009.09 1008.67 1008.27 1007.89 1007.54 1007.23 1006.93 1006.65 1006.37 1006.09 1005.82 1005.56 1005.34 1005.19 1005.12 1005.16 1005.30
1011.97 1012.38 1012.78 1013.17 1013.52 1013.82 1014.05 1014.20 1014.25 1014.19 1014.03 1013.79 1013.47 1013.11 1012.73 1012.36 1012.03 1011.74 1011.50 1011.30 1011.12 1010.94 1010.73 1010.48 1010.19 1009.84 1009.45 1009.04 1008.63 1008.22 1007.84 1007.47 1007.12 1006.78 1006.43 1006.07 1005.71 1005.34 1004.99 1004.69 1004.46 1004.33 1004.31 1004.42
1012.10 1012.54 1012.98 1013.41 1013.78 1014.08 1014.29 1014.39 1014.38 1014.25 1014.03 1013.72 1013.36 1012.97 1012.59 1012.24 1011.93 1011.67 1011.46 1011.28 1011.11 1010.93 1010.71 1010.45 1010.14 1009.78 1009.38 1008.97 1008.56 1008.16 1007.77 1007.40 1007.03 1006.65 1006.26 1005.84 1005.40 1004.96 1004.53 1004.16 1003.86 1003.66 1003.59 1003.66
1012.27 1012.70 1013.14 1013.56 1013.92 1014.21 1014.39 1014.46 1014.40 1014.23 1013.97 1013.63 1013.26 1012.87 1012.51 1012.18 1011.91 1011.68 1011.50 1011.33 1011.16 1010.96 1010.71 1010.41 1010.06 1009.67 1009.25 1008.82 1008.40 1007.99 1007.61 1007.24 1006.86 1006.47 1006.06 1005.61 1005.12 1004.63 1004.15 1003.72 1003.36 1003.12 1003.01 1003.03
1012.42 1012.81 1013.22 1013.60 1013.93 1014.19 1014.34 1014.38 1014.29 1014.10 1013.83 1013.50 1013.14 1012.78 1012.46 1012.18 1011.95 1011.76 1011.59 1011.43 1011.24 1011.01 1010.71 1010.35 1009.94 1009.49 1009.02 1008.55 1008.11 1007.69 1007.30 1006.93 1006.56 1006.18 1005.76 1005.30 1004.81 1004.29 1003.79 1003.33 1002.94 1002.67 1002.53 1002.53
1012.51 1012.83 1013.17 1013.50 1013.78 1014.00 1014.12 1014.14 1014.04 1013.86 1013.60 1013.30 1012.98 1012.68 1012.42 1012.19 1012.01 1011.86 1011.72 1011.55 1011.33 1011.04 1010.68 1010.25 1009.75 1009.22 1008.68 1008.16 1007.67 1007.22 1006.83 1006.46 1006.10 1005.73 1005.33 1004.89 1004.41 1003.91 1003.41 1002.95 1002.57 1002.29 1002.14 1002.13
1012.49 1012.72 1012.98 1013.24 1013.47 1013.65 1013.75 1013.76 1013.68 1013.52 1013.30 1013.05 1012.80 1012.57 1012.37 1012.21 1012.08 1011.97 1011.83 1011.65 1011.40 1011.06 1010.62 1010.10 1009.51 1008.88 1008.26 1007.66 1007.11 1006.63 1006.21 1005.84 1005.50 1005.15 1004.78 1004.38 1003.93 1003.47 1003.00 1002.57 1002.21 1001.95 1001.81 1001.81
1012.32 1012.46 1012.65 1012.84 1013.03 1013.18 1013.27 1013.29 1013.24 1013.13 1012.97 1012.79 1012.61 1012.45 1012.32 1012.22 1012.14 1012.05 1011.92 1011.72 1011.43 1011.03 1010.52 1009.90 1009.22 1008.50 1007.79 1007.11 1006.51 1005.98 1005.53 1005.15 1004.80 1004.48 1004.15 1003.79 1003.40 1002.99 1002.57 1002.19 1001.88 1001.65 1001.54 1001.55
1012.00 1012.08 1012.20 1012.35 1012.50 1012.65 1012.76 1012.81 1012.81 1012.76 1012.67 1012.56 1012.45 1012.35 1012.28 1012.23 1012.17 1012.09 1011.96 1011.74 1011.41 1010.96 1010.38 1009.69 1008.93 1008.13 1007.34 1006.59 1005.92 1005.34 1004.86 1004.46 1004.11 1003.80 1003.50 1003.19 1002.85 1002.50 1002.15 1001.84 1001.58 1001.40 1001.32 1001.36
1011.59 1011.61 1011.68 1011.81 1011.97 1012.13 1012.27 1012.38 1012.44 1012.46 1012.44 1012.39 1012.34 1012.30 1012.26 1012.23 1012.18 1012.10 1011.95 1011.70 1011.34 1010.85 1010.22 1009.49 1008.67 1007.82 1006.97 1006.17 1005.45 1004.82 1004.30 1003.87 1003.52 1003.21 1002.92 1002.64 1002.36 1002.07 1001.79 1001.53 1001.33 1001.21 1001.17 1001.24
1011.10 1011.09 1011.15 1011.28 1011.46 1011.66 1011.86 1012.04 1012.17 1012.26 1012.30 1012.31 1012.30 1012.28 1012.26 1012.22 1012.16 1012.05 1011.88 1011.61 1011.22 1010.70 1010.06 1009.30 1008.47 1007.60 1006.73 1005.89 1005.14 1004.47 1003.92 1003.46 1003.08 1002.77 1002.49 1002.23 1001.98 1001.74 1001.51 1001.32 1001.18 1001.11 1001.11 1001.20
1010.58 1010.56 1010.64 1010.79 1011.02 1011.28 1011.54 1011.79 1012.00 1012.16 1012.26 1012.30 1012.32 1012.30 1012.26 1012.19 1012.10 1011.95 1011.74 1011.45 1011.05 1010.53 1009.89 1009.16 1008.34 1007.49 1006.63 1005.80 1005.03 1004.35 1003.77 1003.28 1002.87 1002.53 1002.24 1001.99 1001.76 1001.55 1001.37 1001.23 1001.13 1001.10 1001.14 1001.24
Thickness
5782 5776 5776 5783 5788 5786 5783 5780 5778 5782 5788 5784 5775 5768 5766 5768 5767 5763 5761 5761 5759 5757 5758 5760 5760 5760 5759 5756 5752 5749 5745 5741 5738 5734 5731 5729 5727 5726 5725 5724 5722 5720 5720 5717
5771 5771 5783 5788 5786 5782 5779 5774 5777 5779 5782 5779 5770 5764 5761 5759 5756 5755 5753 5752 5752 5751 5750 5749 5748 5748 5746 5743 5740 5737 5734 5732 5729 5727 5724 5722 5720 5719 5718 5717 5715 5714 5714 5713
5769 5781 5788 5783 5779 5776 5778 5777 5777 5773 5774 5776 5770 5761 5755 5752 5752 5749 5748 5746 5745 5742 5740 5739 5738 5737 5735 5732 5730 5728 5724 5722 5720 5717 5717 5715 5712 5710 5710 5709 5708 5707 5707 5707
5776 5785 5783 5780 5780 5779 5775 5784 5779 5773 5766 5769 5767 5756 5750 5753 5747 5743 5740 5740 5737 5735 5733 5731 5728 5726 5724 5722 5720 5717 5714 5713 5710 5708 5708 5706 5702 5700 5699 5700 5699 5699 5699 5699
5775 5780 5778 5776 5779 5780 5778 5782 5778 5774 5769 5765 5767 5759 5751 5754 5742 5738 5736 5734 5732 5730 5727 5723 5720 5718 5716 5715 5711 5708 5705 5702 5700 5698 5697 5696 5695 5693 5692 5690 5689 5689 5689 5689
5779 5787 5784 5781 5785 5784 5781 5777 5775 5774 5772 5752 5756 5750 5743 5744 5735 5734 5732 5729 5726 5724 5721 5717 5715 5712 5709 5707 5704 5701 5697 5693 5690 5688 5687 5685 5683 5681 5679 5678 5678 5679 5680 5679
5770 5778 5785 5786 5778 5781 5777 5765 5753 5749 5748 5745 5753 5746 5730 5732 5733 5730 5726 5724 5723 5719 5716 5712 5708 5705 5702 5700 5696 5693 5688 5684 5682 5679 5677 5675 5672 5670 5668 5668 5668 5667 5668 5668
5754 5756 5771 5777 5771 5767 5769 5763 5742 5728 5735 5747 5750 5737 5726 5729 5728 5726 5724 5721 5717 5715 5711 5707 5704 5701 5697 5694 5689 5685 5680 5675 5672 5669 5666 5664 5661 5661 5661 5658 5657 5656 5656 5656
5755 5754 5770 5772 5776 5771 5762 5762 5763 5749 5747 5737 5744 5733 5724 5728 5724 5721 5718 5714 5710 5708 5705 5702 5699 5695 5691 5686 5681 5677 5672 5667 5662 5659 5656 5652 5650 5648 5648 5645 5643 5644 5643 5642
5763 5749 5762 5768 5774 5767 5767 5761 5755 5744 5724 5722 5732 5726 5716 5713 5712 5713 5711 5707 5704 5702 5699 5695 5691 5686 5681 5677 5672 5668 5662 5656 5652 5649 5645 5644 5641 5637 5634 5632 5631 5629 5628 5627
5766 5750 5754 5759 5749 5747 5754 5752 5748 5745 5734 5719 5714 5714 5719 5710 5707 5705 5704 5701 5698 5694 5691 5687 5682 5677 5672 5668 5663 5658 5653 5648 5643 5639 5635 5631 5628 5625 5621 5618 5616 5615 5613 5612
5760 5757 5745 5746 5751 5755 5749 5741 5740 5726 5719 5720 5715 5712 5718 5712 5707 5702 5698 5695 5691 5686 5682 5678 5673 5667 5661 5657 5652 5648 5643 5638 5633 5629 5624 5620 5616 5612 5609 5606 5603 5601 5599 5598
5757 5747 5736 5735 5739 5746 5739 5736 5734 5730 5723 5715 5707 5709 5716 5711 5705 5699 5693 5688 5683 5678 5673 5667 5661 5655 5650 5645 5640 5636 5632 5627 5623 5618 5613 5608 5603 5599 5595 5591 5589 5587 5585 5584
5758 5745 5737 5729 5730 5735 5727 5727 5728 5724 5714 5707 5705 5703 5709 5704 5696 5691 5686 5680 5676 5670 5663 5656 5650 5644 5639 5634 5629 5625 5620 5616 5611 5605 5599 5593 5588 5583 5580 5577 5575 5573 5572 5570
5757 5742 5738 5737 5737 5734 5727 5722 5721 5714 5708 5702 5700 5699 5701 5696 5689 5684 5679 5673 5667 5660 5653 5647 5640 5635 5630 5625 5619 5614 5609 5603 5597 5590 5584 5579 5574 5569 5565 5562 5559 5557 5557 5558
5751 5738 5736 5729 5730 5728 5721 5718 5716 5711 5708 5704 5701 5699 5702 5695 5687 5679 5671 5664 5656 5650 5644 5638 5632 5626 5621 5615 5610 5604 5597 5591 5584 5577 5571 5565 5559 5554 5550 5546 5544 5542 5542 5543
5749 5737 5729 5729 5726 5720 5713 5715 5711 5707 5708 5701 5693 5694 5694 5686 5677 5669 5663 5656 5648 5641 5635 5629 5623 5618 5612 5607 5600 5593 5586 5579 5572 5564 5558 5551 5545 5540 5536 5534 5532 5530 5529 5529
5740 5734 5731 5729 5717 5701 5714 5723 5715 5706 5706 5705 5698 5694 5687 5679 5674 5667 5662 5650 5640 5633 5627 5622 5616 5611 5605 5598 5591 5583 5576 5569 5561 5553 5546 5540 5533 5528 5525 5522 5520 5519 5518 5518
5743 5734 5729 5723 5716 5714 5713 5716 5712 5700 5698 5703 5692 5687 5683 5678 5670 5669 5658 5644 5634 5627 5620 5614 5609 5603 5596 5589 5581 5574 5567 5560 5552 5544 5537 5529 5522 5517 5513 5511 5510 5509 5508 5509
5738 5735 5729 5719 5704 5701 5709 5717 5714 5701 5694 5697 5689 5680 5674 5668 5658 5658 5650 5640 5631 5622 5615 5609 5603 5596 5588 5581 5573 5565 5559 5551 5544 5536 5528 5520 5513 5509 5506 5504 5502 5501 5501 5502
5731 5726 5722 5715 5707 5715 5718 5717 5708 5689 5685 5690 5685 5676 5668 5658 5650 5648 5643 5634 5625 5618 5611 5604 5597 5589 5582 5574 5567 5559 5552 5545 5538 5530 5522 5515 5509 5504 5502 5500 5497 5496 5496 5497
5730 5725 5716 5712 5704 5705 5719 5713 5700 5693 5694 5688 5681 5674 5666 5658 5652 5645 5637 5629 5621 5614 5608 5600 5592 5585 5578 5570 5562 5555 5548 5540 5533 5525 5518 5513 5507 5503 5502 5499 5496 5495 5494 5494
5733 5730 5728 5719 5715 5718 5720 5712 5707 5700 5691 5685 5679 5671 5663 5655 5648 5640 5632 5624 5617 5610 5603 5596 5588 5581 5575 5567 5559 5551 5544 5536 5529 5522 5517 5512 5508 5504 5501 5499 5497 5496 5494 5494
5733 5728 5723 5716 5720 5720 5716 5711 5704 5697 5688 5682 5675 5667 5659 5650 5643 5636 5627 5620 5613 5606 5599 5593 5585 5578 5572 5565 5557 5549 5542 5534 5527 5521 5517 5513 5509 5507 5505 5502 5500 5498 5497 5496
5733 5724 5719 5713 5718 5716 5713 5707 5701 5694 5687 5679 5672 5664 5655 5646 5639 5631 5623 5617 5609 5602 5596 5589 5582 5576 5570 5563 5556 5549 5542 5535 5528 5523 5519 5515 5512 5510 5507 5506 5503 5501 5499 5497
5736 5727 5717 5716 5719 5713 5708 5705 5698 5689 5681 5675 5666 5659 5652 5643 5635 5627 5620 5613 5605 5599 5593 5587 5580 5574 5568 5562 5556 5550 5543 5536 5530 5525 5521 5518 5515 5512 5510 5509 5507 5501 5498 5495